IRNSS-1I

Last updated on Tue Dec 16 2025 00:02:51 GMT+0000 (Coordinated Universal Time)

1 43286U 18035A 25348.83100279 .00000084 00000+0 00000+0 0 9992 2 43286 29.1546 77.0653 0021717 182.6132 178.2270 1.00272129 28237
UTC large
Height (km)
Speed (km/s)
/
Latitude / Longitude
Inclination (degrees)
Orbital Period (minutes)
Azimuth
Elevation
Range (km)
Doppler Factor

Next 0 passes for location: London (51.5072 / 0.1276)

Sorry there are no passes over London.